Tracking 30922 objects as of 2-Jul-2025
HD Live streaming from Space Station
objects crossing your sky now

ONEWEB-0468

Track ONEWEB-0468 now!
10-day predictions
ONEWEB-0468 is classified as:


NORAD ID: 51652
Int'l Code: 2022-012AG
Perigee: 1,227.4 km
Apogee: 1,230.4 km
Inclination: 87.9 °
Period: 109.9 minutes
Semi major axis: 7599 km
RCS: Unknown
Launch date: February 10, 2022
Source: United Kingdom (UK)
Launch site: FRENCH GUIANA (FRGUI)
Your satellite tracking list
ARIANE 5 R/B
Track 1 satellite(s)




NASA's NSSDC Master Catalog

Two Line Element Set (TLE):
1 51652U 22012AG  25182.25321420  .00000372  00000-0  10286-2 0  9994
2 51652  87.8826 106.2646 0001985  79.0596 281.0754 13.10370049163346
Source of the keplerian elements: AFSPC